STARLINK-11291 [DTC]

Last updated on Fri Oct 04 2024 00:02:04 GMT+0000 (Coordinated Universal Time)

1 61208U 24171J 24277.58334491 -.00507315 00000+0 -23324-2 0 9999 2 61208 53.1629 231.4470 0000606 124.1992 3.3952 15.84140660 3286
UTC large
Height (km)
Speed (km/s)
/
Latitude / Longitude
Inclination (degrees)
Orbital Period (minutes)
Azimuth
Elevation
Range (km)
Doppler Factor

Next 0 passes for location: London (51.5072 / 0.1276)

Sorry there are no passes over London.